User: anonymous   Login
Location: Unspecified
(0.0000°N, 0.0000°E)
Time: 23:04:54
(UTC+00:00)
Language:

ONEWEB-0027 - Orbit

View from above orbital plane
View from above orbital plane
View from above satellite
View from above satellite

Ground track
Ground track

The orbit is defined by the following mean orbital elements,

1 45432U          26145.60982731 +.00000000 +00000-0 +20276-3 0 00005
2 45432  87.9160  10.3429 0001558  93.3230 266.8079 13.16052597    06
Epoch (UTC): 25 May 2026 14:38:09
Eccentricity: 0.0001558
inclination: 87.9160°
perigee height: 1199 km
apogee height: 1201 km
right ascension of ascending node: 10.3429°
argument of perigee: 93.3230°
revolutions per day: 13.16052597
mean anomaly at epoch: 266.8079°

The dashed part of the orbit path shows where the satellite is in the earth's shadow,  

DLR